TimeEDT,TemperatureF,Dew PointF,Humidity,Sea Level PressureIn,VisibilityMPH,Wind Direction,Wind SpeedMPH,Gust SpeedMPH,PrecipitationIn,Events,Conditions,WindDirDegrees,DateUTC
12:54 AM,66.9,64.0,90,29.66,7.0,West,4.6,-,N/A,,Scattered Clouds,270,2013-06-30 04:54:00
1:54 AM,66.9,64.9,93,29.66,6.0,West,3.5,-,N/A,,Mostly Cloudy,260,2013-06-30 05:54:00
2:54 AM,64.9,64.0,97,29.68,3.0,Calm,Calm,-,N/A,,Clear,0,2013-06-30 06:54:00
3:02 AM,64.4,62.6,94,29.75,2.5,Calm,Calm,-,N/A,,Clear,0,2013-06-30 07:02:00
3:09 AM,64.4,62.6,94,29.75,4.0,Calm,Calm,-,N/A,,Clear,0,2013-06-30 07:09:00
3:22 AM,64.4,62.6,94,29.76,1.5,Calm,Calm,-,N/A,,Clear,0,2013-06-30 07:22:00
3:31 AM,62.6,62.6,100,29.76,0.8,Calm,Calm,-,N/A,,Clear,0,2013-06-30 07:31:00
3:37 AM,62.6,62.6,100,29.76,2.0,Calm,Calm,-,N/A,,Clear,0,2013-06-30 07:37:00
3:46 AM,64.4,62.6,94,29.76,4.0,Calm,Calm,-,N/A,,Clear,0,2013-06-30 07:46:00
3:54 AM,64.0,62.1,93,29.68,3.0,Calm,Calm,-,N/A,,Clear,0,2013-06-30 07:54:00
3:56 AM,64.4,62.6,94,29.75,1.5,Calm,Calm,-,N/A,,Partly Cloudy,0,2013-06-30 07:56:00
3:58 AM,64.4,62.6,94,29.75,0.8,Calm,Calm,-,N/A,,Mist,0,2013-06-30 07:58:00
4:06 AM,62.6,62.6,100,29.76,0.2,Calm,Calm,-,N/A,Fog,Fog,0,2013-06-30 08:06:00
4:21 AM,62.6,62.6,100,29.76,1.0,Calm,Calm,-,N/A,,Mist,0,2013-06-30 08:21:00
4:30 AM,64.4,62.6,94,29.77,2.0,Calm,Calm,-,N/A,,Mostly Cloudy,0,2013-06-30 08:30:00
4:33 AM,62.6,62.6,100,29.76,0.8,Calm,Calm,-,N/A,,Mist,0,2013-06-30 08:33:00
4:42 AM,62.6,62.6,100,29.77,0.2,Calm,Calm,-,N/A,Fog,Fog,0,2013-06-30 08:42:00
4:54 AM,63.0,62.1,97,29.69,0.2,Calm,Calm,-,N/A,Fog,Fog,0,2013-06-30 08:54:00
5:04 AM,62.6,62.6,100,29.77,0.2,Calm,Calm,-,N/A,Fog,Fog,0,2013-06-30 09:04:00
5:14 AM,64.4,62.6,94,29.78,0.2,Calm,Calm,-,N/A,Fog,Fog,0,2013-06-30 09:14:00
5:35 AM,64.4,64.4,100,29.79,0.2,Calm,Calm,-,N/A,Fog,Fog,0,2013-06-30 09:35:00
5:54 AM,64.9,64.0,97,29.72,0.2,Calm,Calm,-,N/A,Fog,Fog,0,2013-06-30 09:54:00
6:39 AM,64.4,64.4,100,29.81,0.2,Calm,Calm,-,N/A,Fog,Fog,0,2013-06-30 10:39:00
6:54 AM,64.0,64.0,100,29.74,0.2,Calm,Calm,-,N/A,Fog,Fog,0,2013-06-30 10:54:00
7:54 AM,64.9,64.9,100,29.76,0.2,Calm,Calm,-,N/A,Fog,Fog,0,2013-06-30 11:54:00
8:03 AM,66.2,64.4,94,29.84,1.0,Calm,Calm,-,N/A,,Overcast,0,2013-06-30 12:03:00
8:24 AM,66.2,64.4,94,29.84,2.0,Calm,Calm,-,N/A,,Overcast,0,2013-06-30 12:24:00
8:35 AM,66.2,66.2,100,29.85,4.0,West,4.6,-,N/A,,Mostly Cloudy,280,2013-06-30 12:35:00
8:42 AM,66.2,66.2,100,29.85,5.0,West,3.5,-,N/A,,Scattered Clouds,260,2013-06-30 12:42:00
8:54 AM,68.0,66.0,93,29.78,7.0,Variable,3.5,-,N/A,,Clear,0,2013-06-30 12:54:00
9:54 AM,75.9,66.0,71,29.77,10.0,Variable,4.6,-,N/A,,Partly Cloudy,0,2013-06-30 13:54:00
10:54 AM,79.0,64.0,60,29.76,10.0,WSW,6.9,-,N/A,,Clear,240,2013-06-30 14:54:00
11:54 AM,79.0,66.0,64,29.77,10.0,South,6.9,-,N/A,,Mostly Cloudy,180,2013-06-30 15:54:00
12:54 PM,80.1,66.0,62,29.76,10.0,South,8.1,-,N/A,,Mostly Cloudy,170,2013-06-30 16:54:00
1:54 PM,81.0,64.9,58,29.76,10.0,South,6.9,-,N/A,,Scattered Clouds,170,2013-06-30 17:54:00
2:54 PM,79.0,68.0,69,29.77,10.0,South,9.2,-,N/A,,Clear,180,2013-06-30 18:54:00
3:54 PM,78.1,66.9,68,29.79,10.0,South,9.2,-,N/A,,Clear,190,2013-06-30 19:54:00
4:45 PM,75.2,68.0,78,29.87,9.0,South,6.9,-,N/A,Thunderstorm,Mostly Cloudy,180,2013-06-30 20:45:00
4:54 PM,75.0,66.9,76,29.82,7.0,South,20.7,28.8,N/A,Thunderstorm,Overcast,190,2013-06-30 20:54:00
5:01 PM,71.6,66.2,83,29.90,1.8,South,12.7,27.6,0.05,Rain-Thunderstorm,Rain,180,2013-06-30 21:01:00
5:11 PM,71.6,69.8,94,29.89,2.0,SSE,12.7,-,0.06,Rain,Light Rain,160,2013-06-30 21:11:00
5:19 PM,71.6,69.8,94,29.89,5.0,South,12.7,19.6,0.06,Rain,Light Rain,180,2013-06-30 21:19:00
5:27 PM,71.6,68.0,88,29.89,4.0,South,12.7,-,0.07,Rain-Thunderstorm,Light Rain,190,2013-06-30 21:27:00
5:42 PM,69.8,66.2,88,29.89,4.0,South,16.1,21.9,0.09,Rain,Light Rain,170,2013-06-30 21:42:00
5:54 PM,70.0,66.9,90,29.83,3.0,South,11.5,18.4,0.12,Rain,Light Rain,190,2013-06-30 21:54:00
6:54 PM,69.1,66.0,90,29.83,9.0,Calm,Calm,-,0.07,,Mostly Cloudy,0,2013-06-30 22:54:00
7:54 PM,68.0,66.0,93,29.83,4.0,Calm,Calm,-,N/A,,Partly Cloudy,0,2013-06-30 23:54:00
8:17 PM,68.0,66.2,94,29.89,5.0,Calm,Calm,-,N/A,,Partly Cloudy,0,2013-07-01 00:17:00
8:54 PM,68.0,66.0,93,29.84,6.0,WSW,3.5,-,0.00,Rain,Light Rain,250,2013-07-01 00:54:00
9:54 PM,66.9,66.0,97,29.86,2.5,Calm,Calm,-,0.00,,Overcast,0,2013-07-01 01:54:00
10:01 PM,68.0,66.2,94,29.94,2.5,Calm,Calm,-,N/A,,Overcast,0,2013-07-01 02:01:00
10:08 PM,66.2,66.2,100,29.94,3.0,Calm,Calm,-,N/A,,Overcast,0,2013-07-01 02:08:00
10:14 PM,66.2,66.2,100,29.94,2.5,Calm,Calm,-,N/A,,Overcast,0,2013-07-01 02:14:00
10:25 PM,66.2,66.2,100,29.94,4.0,ESE,3.5,-,N/A,,Overcast,120,2013-07-01 02:25:00
10:54 PM,68.0,66.0,93,29.86,5.0,Calm,Calm,-,N/A,,Overcast,0,2013-07-01 02:54:00
11:12 PM,68.0,66.2,94,29.94,2.5,Calm,Calm,-,N/A,,Overcast,0,2013-07-01 03:12:00
11:23 PM,68.0,66.2,94,29.94,3.0,Calm,Calm,-,N/A,,Overcast,0,2013-07-01 03:23:00
11:54 PM,68.0,66.9,96,29.88,5.0,Calm,Calm,-,N/A,,Overcast,0,2013-07-01 03:54:00